K5HAS Weather Reports


Display with metric or nautical units.
time (UTC)temp
F
wind
direction
speed
MPH
gust
MPH
rain 1hr
in
rain 24hr
in
rain mn
in
humidity
%
barometer
mb
20220529073901 76 90 9.0 14.0 0.00 0.00 0.00 94 1007.8
20220529073403 76 90 9.0 14.0 0.00 0.00 0.00 95 1007.8
20220529072901 76 161 9.0 14.0 0.00 0.00 0.00 95 1007.8
20220529072359 76 155 9.0 12.0 0.00 0.00 0.00 95 1007.8
20220529071859 76 158 9.0 12.0 0.00 0.00 0.00 95 1007.8
20220529071402 76 90 8.0 13.0 0.00 0.00 0.00 95 1008.2
20220529070859 76 90 7.0 13.0 0.00 0.00 0.00 95 1008.2
20220529070359 76 90 7.0 12.0 0.00 0.00 0.00 95 1008.2
20220529065858 76 160 7.0 12.0 0.00 0.00 0.00 95 1008.2
20220529065357 76 160 7.0 11.0 0.00 0.00 0.00 95 1008.2
20220529064856 76 161 7.0 10.0 0.00 0.00 0.00 95 1008.2
20220529064349 76 161 7.0 11.0 0.00 0.00 0.00 95 1008.2
20220529063843 76 90 7.0 13.0 0.00 0.00 0.00 95 1008.2
20220529063335 76 179 7.0 13.0 0.00 0.00 0.00 95 1008.2
20220529062823 76 157 7.0 10.0 0.00 0.00 0.00 95 1008.2
20220529062316 76 90 7.0 11.0 0.00 0.00 0.00 95 1008.2
20220529061806 76 168 7.0 11.0 0.00 0.00 0.00 95 1008.2
20220529061303 76 158 7.0 11.0 0.00 0.00 0.00 95 1008.4
20220529060805 76 164 7.0 11.0 0.00 0.00 0.00 95 1008.4
20220529060303 76 168 7.0 11.0 0.00 0.00 0.00 95 1008.4
20220529055804 76 162 7.0 11.0 0.00 0.00 0.00 95 1008.7
20220529055302 76 168 7.0 11.0 0.00 0.00 0.00 95 1008.7
20220529054759 76 90 8.0 11.0 0.00 0.00 0.00 95 1008.7
20220529054259 76 161 8.0 11.0 0.00 0.00 0.00 95 1008.7
20220529053756 76 90 8.0 11.0 0.00 0.00 0.00 95 1008.7
20220529053258 76 90 7.0 11.0 0.00 0.00 0.00 95 1008.7
20220529052757 76 161 7.0 10.0 0.00 0.00 0.00 95 1008.8
20220529052257 76 90 7.0 11.0 0.00 0.00 0.00 95 1008.8
20220529051800 76 90 8.0 12.0 0.00 0.00 0.00 95 1008.8
20220529051258 76 90 8.0 13.0 0.00 0.00 0.00 95 1008.8
20220529050749 76 90 8.0 13.0 0.00 0.00 0.00 95 1008.8
20220529050239 76 166 9.0 13.0 0.00 0.00 0.00 95 1008.8
20220529045729 76 90 9.0 12.0 0.00 0.00 0.00 95 1008.9
20220529045216 76 90 8.0 12.0 0.00 0.00 0.00 94 1008.9
20220529044710 76 170 8.0 12.0 0.00 0.00 0.00 94 1008.9
20220529044203 76 161 8.0 12.0 0.00 0.00 0.00 94 1008.9
20220529043659 76 90 9.0 13.0 0.00 0.00 0.00 94 1008.9
20220529043144 76 90 9.0 13.0 0.00 0.00 0.00 94 1008.9
20220529042637 76 90 8.0 14.0 0.00 0.00 0.00 94 1009.2
20220529042134 76 90 7.0 14.0 0.00 0.00 0.00 94 1009.2
20220529041631 76 163 7.0 10.0 0.00 0.00 0.00 94 1009.2
20220529041130 76 157 6.0 9.0 0.00 0.00 0.00 94 1009.1
20220529040632 76 162 6.0 9.0 0.00 0.00 0.00 94 1009.1
20220529040130 76 151 5.0 9.0 0.00 0.00 0.00 93 1009.1
20220529035631 76 90 5.0 8.0 0.00 0.00 0.00 93 1008.8
20220529035131 76 153 5.0 9.0 0.00 0.00 0.00 93 1008.8
20220529034630 76 90 5.0 9.0 0.00 0.00 0.00 93 1008.8
20220529034131 76 90 6.0 9.0 0.00 0.00 0.00 93 1008.7
20220529033633 76 90 7.0 10.0 0.00 0.00 0.00 93 1008.7
20220529033130 76 161 8.0 11.0 0.00 0.00 0.00 93 1008.7
20220529032624 76 159 8.0 12.0 0.00 0.00 0.00 93 1008.7
20220529032117 77 151 8.0 12.0 0.00 0.00 0.00 93 1008.7
20220529031612 77 90 8.0 11.0 0.00 0.00 0.00 93 1008.7
20220529031112 77 161 8.0 14.0 0.00 0.00 0.00 93 1008.7
20220529030612 77 90 9.0 14.0 0.00 0.00 0.00 93 1008.7
20220529030113 77 157 9.0 14.0 0.00 0.00 0.00 93 1008.7
20220529025613 77 90 10.0 15.0 0.00 0.00 0.00 92 1008.4
20220529025111 77 124 10.0 15.0 0.00 0.00 0.00 92 1008.4
20220529024610 77 90 10.0 17.0 0.00 0.00 0.00 92 1008.4
20220529024110 77 90 10.0 17.0 0.00 0.00 0.00 92 1008.5
20220529023610 77 90 10.0 15.0 0.00 0.00 0.00 92 1008.5
20220529023110 78 158 9.0 15.0 0.00 0.00 0.00 92 1008.5
20220529022611 78 143 9.0 14.0 0.00 0.00 0.00 92 1008.6
20220529022105 78 90 9.0 14.0 0.00 0.00 0.00 91 1008.6
20220529021558 78 90 9.0 14.0 0.00 0.00 0.00 91 1008.6
20220529021055 78 166 9.0 13.0 0.00 0.00 0.00 91 1008.6
20220529020556 78 90 9.0 16.0 0.00 0.00 0.00 91 1008.6
20220529020055 78 145 9.0 16.0 0.00 0.00 0.00 90 1008.6
20220529015555 78 90 10.0 16.0 0.00 0.00 0.00 90 1008.5
20220529015055 78 90 11.0 16.0 0.00 0.00 0.00 90 1008.5
20220529014555 79 90 11.0 16.0 0.00 0.00 0.00 89 1008.5
20220529014053 79 147 11.0 16.0 0.00 0.00 0.00 89 1008.5
20220529013542 79 90 11.0 17.0 0.00 0.00 0.00 89 1008.5
20220529013038 79 161 12.0 18.0 0.00 0.00 0.00 88 1008.5
20220529012538 80 90 11.0 18.0 0.00 0.00 0.00 88 1008.5
20220529012038 80 90 11.0 18.0 0.00 0.00 0.00 87 1008.5
20220529011538 80 90 11.0 17.0 0.00 0.00 0.00 87 1008.5
20220529011041 80 166 12.0 17.0 0.00 0.00 0.00 87 1008.5
20220529010539 81 90 11.0 20.0 0.00 0.00 0.00 86 1008.5
20220529010040 81 90 11.0 20.0 0.00 0.00 0.00 86 1008.5
20220529005538 81 90 12.0 21.0 0.00 0.00 0.00 85 1008.5
20220529005037 81 90 12.0 21.0 0.00 0.00 0.00 85 1008.5
20220529004535 82 151 11.0 21.0 0.00 0.00 0.00 84 1008.5
20220529004035 82 158 12.0 21.0 0.00 0.00 0.00 84 1008.4
20220529003528 82 150 11.0 19.0 0.00 0.00 0.00 83 1008.4
20220529003023 83 144 11.0 19.0 0.00 0.00 0.00 83 1008.4
20220529002517 83 90 11.0 19.0 0.00 0.00 0.00 83 1008.2
20220529002005 83 90 10.0 17.0 0.00 0.00 0.00 82 1008.2
20220529001452 83 90 11.0 19.0 0.00 0.00 0.00 82 1008.2
20220529000942 84 90 11.0 19.0 0.00 0.00 0.00 81 1008.2
20220529000431 84 161 10.0 20.0 0.00 0.00 0.00 80 1008.2
20220528235923 84 90 11.0 21.0 0.00 0.00 0.00 80 1008.2
20220528235419 85 90 12.0 21.0 0.00 0.00 0.00 80 1008.2
20220528234920 85 90 12.0 20.0 0.00 0.00 0.00 79 1008.2
20220528234421 85 148 11.0 18.0 0.00 0.00 0.00 79 1008.2
20220528233921 86 134 12.0 18.0 0.00 0.00 0.00 78 1008.2
20220528233417 86 90 11.0 18.0 0.00 0.00 0.00 78 1008.2
20220528232917 87 166 10.0 17.0 0.00 0.00 0.00 77 1008.2
20220528232420 87 141 9.0 17.0 0.00 0.00 0.00 77 1008.2
20220528231917 87 90 10.0 17.0 0.00 0.00 0.00 76 1008.2
20220528231417 87 90 11.0 19.0 0.00 0.00 0.00 75 1008.2
20220528230917 88 90 11.0 19.0 0.00 0.00 0.00 74 1008.2
20220528230419 88 155 11.0 18.0 0.00 0.00 0.00 75 1008.2
20220528225910 88 157 10.0 18.0 0.00 0.00 0.00 74 1008.3
20220528225359 89 131 10.0 18.0 0.00 0.00 0.00 73 1008.3
20220528224849 89 90 10.0 18.0 0.00 0.00 0.00 73 1008.3
20220528224342 89 90 10.0 18.0 0.00 0.00 0.00 72 1008.3
20220528223834 89 90 11.0 18.0 0.00 0.00 0.00 72 1008.3
20220528223331 89 90 12.0 18.0 0.00 0.00 0.00 72 1008.3
20220528222831 90 143 11.0 20.0 0.00 0.00 0.00 71 1008.5
20220528222331 90 90 10.0 20.0 0.00 0.00 0.00 71 1008.5
20220528221831 90 152 10.0 18.0 0.00 0.00 0.00 71 1008.5
20220528221330 90 90 11.0 18.0 0.00 0.00 0.00 70 1008.7
20220528220832 91 90 10.0 17.0 0.00 0.00 0.00 69 1008.7
20220528220331 91 153 10.0 18.0 0.00 0.00 0.00 69 1008.7
20220528215831 92 161 10.0 18.0 0.00 0.00 0.00 65 1008.7
20220528215335 92 120 10.0 16.0 0.00 0.00 0.00 67 1008.7
20220528214831 92 176 10.0 17.0 0.00 0.00 0.00 62 1008.7
20220528214324 92 90 10.0 17.0 0.00 0.00 0.00 63 1008.8
20220528213812 92 90 10.0 17.0 0.00 0.00 0.00 59 1008.8
20220528213301 93 90 10.0 16.0 0.00 0.00 0.00 58 1008.8
20220528212747 93 186 10.0 16.0 0.00 0.00 0.00 59 1009.0
20220528212230 93 90 10.0 15.0 0.00 0.00 0.00 54 1009.0
20220528211719 92 160 10.0 16.0 0.00 0.00 0.00 54 1009.0
20220528211210 92 163 10.0 16.0 0.00 0.00 0.00 60 1009.3
20220528210709 93 90 10.0 17.0 0.00 0.00 0.00 58 1009.3
20220528210208 93 179 10.0 17.0 0.00 0.00 0.00 56 1009.3
20220528205709 93 173 10.0 17.0 0.00 0.00 0.00 59 1009.3
20220528205209 93 169 11.0 16.0 0.00 0.00 0.00 60 1009.3
20220528204709 92 90 10.0 17.0 0.00 0.00 0.00 59 1009.3
20220528204210 93 90 9.0 17.0 0.00 0.00 0.00 61 1009.7
20220528203700 92 90 10.0 17.0 0.00 0.00 0.00 58 1009.7
20220528203150 93 182 10.0 17.0 0.00 0.00 0.00 59 1009.7
20220528202645 93 132 10.0 19.0 0.00 0.00 0.00 59 1009.8
20220528202148 92 90 9.0 19.0 0.00 0.00 0.00 58 1009.8
20220528201650 92 184 7.0 14.0 0.00 0.00 0.00 64 1009.8
20220528201146 92 168 8.0 14.0 0.00 0.00 0.00 62 1010.1
20220528200645 92 199 8.0 13.0 0.00 0.00 0.00 63 1010.1
20220528200143 93 90 8.0 15.0 0.00 0.00 0.00 65 1010.1
20220528195639 93 90 8.0 15.0 0.00 0.00 0.00 64 1010.3
20220528195140 92 223 8.0 14.0 0.00 0.00 0.00 64 1010.3
20220528194638 92 209 8.0 14.0 0.00 0.00 0.00 65 1010.3
20220528194139 92 211 7.0 12.0 0.00 0.00 0.00 67 1010.6
20220528193638 92 215 7.0 13.0 0.00 0.00 0.00 65 1010.6
20220528193140 93 174 8.0 13.0 0.00 0.00 0.00 64 1010.6
20220528192637 92 179 7.0 13.0 0.00 0.00 0.00 63 1010.8
20220528192136 91 199 7.0 12.0 0.00 0.00 0.00 64 1010.8
20220528191636 91 226 7.0 13.0 0.00 0.00 0.00 66 1010.8
20220528191137 91 212 7.0 13.0 0.00 0.00 0.00 66 1011.3
20220528190637 91 90 8.0 14.0 0.00 0.00 0.00 65 1011.3
20220528190137 91 213 8.0 14.0 0.00 0.00 0.00 67 1011.3
20220528185630 91 203 7.0 16.0 0.00 0.00 0.00 67 1011.4
20220528185131 91 218 8.0 16.0 0.00 0.00 0.00 67 1011.4
20220528184631 91 90 9.0 16.0 0.00 0.00 0.00 65 1011.4
20220528184130 90 174 9.0 16.0 0.00 0.00 0.00 66 1011.5
20220528183626 90 215 8.0 13.0 0.00 0.00 0.00 67 1011.5
20220528183127 90 201 8.0 12.0 0.00 0.00 0.00 68 1011.5
20220528182620 90 186 7.0 12.0 0.00 0.00 0.00 67 1011.6
20220528182111 90 188 8.0 13.0 0.00 0.00 0.00 67 1011.6
20220528181556 90 182 8.0 14.0 0.00 0.00 0.00 69 1011.6
20220528181050 89 225 7.0 14.0 0.00 0.00 0.00 69 1011.9
20220528180544 89 214 7.0 12.0 0.00 0.00 0.00 69 1011.9
20220528180037 89 207 8.0 15.0 0.00 0.00 0.00 68 1011.9
20220528175538 89 206 8.0 15.0 0.00 0.00 0.00 66 1011.9
20220528175035 89 203 8.0 15.0 0.00 0.00 0.00 67 1011.9
20220528174536 89 204 9.0 15.0 0.00 0.00 0.00 67 1011.9
20220528174031 89 209 8.0 15.0 0.00 0.00 0.00 68 1012.2
20220528173535 89 213 7.0 14.0 0.00 0.00 0.00 68 1012.2
20220528173033 89 207 7.0 14.0 0.00 0.00 0.00 69 1012.2
20220528172531 89 199 8.0 14.0 0.00 0.00 0.00 68 1012.4
20220528172030 88 182 8.0 14.0 0.00 0.00 0.00 70 1012.4
20220528171533 88 214 8.0 13.0 0.00 0.00 0.00 71 1012.4
20220528171031 88 207 8.0 13.0 0.00 0.00 0.00 72 1012.4
20220528170525 88 203 8.0 0.0 0.00 0.00 0.00 71 1012.4
20220528170237 88 203 8.0 10.0 0.00 0.00 0.00 71 1012.4
20220528165536 87 219 9.0 15.0 0.00 0.00 0.00 70 1012.5
20220528165039 88 197 8.0 15.0 0.00 0.00 0.00 70 1012.5
20220528164536 88 90 8.0 14.0 0.00 0.00 0.00 71 1012.5
20220528164039 87 194 8.0 14.0 0.00 0.00 0.00 73 1012.7
20220528163535 86 195 8.0 14.0 0.00 0.00 0.00 77 1012.7
20220528163032 87 224 8.0 14.0 0.00 0.00 0.00 74 1012.7
20220528162534 87 179 8.0 14.0 0.00 0.00 0.00 72 1012.8
20220528162032 87 189 9.0 14.0 0.00 0.00 0.00 74 1012.8
20220528161532 87 217 8.0 15.0 0.00 0.00 0.00 73 1012.8
20220528161031 86 180 8.0 15.0 0.00 0.00 0.00 75 1012.8
20220528160534 86 208 8.0 14.0 0.00 0.00 0.00 76 1012.8
20220528160032 86 203 8.0 14.0 0.00 0.00 0.00 75 1012.8
20220528155521 86 193 8.0 13.0 0.00 0.00 0.00 75 1012.9
20220528155011 85 201 7.0 12.0 0.00 0.00 0.00 76 1012.9
20220528154458 86 214 6.0 13.0 0.00 0.00 0.00 76 1012.9
20220528153952 86 188 6.0 13.0 0.00 0.00 0.00 77 1012.9
20220528153445 85 195 7.0 14.0 0.00 0.00 0.00 77 1012.9
20220528152931 84 195 7.0 14.0 0.00 0.00 0.00 78 1012.9
20220528152431 85 178 6.0 13.0 0.00 0.00 0.00 79 1012.9
20220528151929 84 196 6.0 13.0 0.00 0.00 0.00 81 1012.9
20220528151429 83 187 7.0 13.0 0.00 0.00 0.00 81 1012.9
20220528150929 83 183 7.0 13.0 0.00 0.00 0.00 80 1012.9
20220528150430 83 182 7.0 13.0 0.00 0.00 0.00 82 1012.9
20220528145929 82 187 7.0 13.0 0.00 0.00 0.00 82 1013.0
20220528145428 83 206 7.0 13.0 0.00 0.00 0.00 82 1013.0
20220528144930 82 201 7.0 13.0 0.00 0.00 0.00 84 1013.0
20220528144427 81 207 7.0 13.0 0.00 0.00 0.00 85 1013.1
20220528143925 81 189 7.0 13.0 0.00 0.00 0.00 85 1013.1
20220528143416 81 201 8.0 13.0 0.00 0.00 0.00 85 1013.1
20220528142915 81 216 8.0 13.0 0.00 0.00 0.00 86 1013.2
20220528142413 80 196 8.0 13.0 0.00 0.00 0.00 88 1013.2
20220528141914 80 203 9.0 14.0 0.00 0.00 0.00 87 1013.2
20220528141416 80 181 9.0 15.0 0.00 0.00 0.00 88 1013.1
20220528140913 80 235 8.0 15.0 0.00 0.00 0.00 88 1013.1
20220528140413 80 219 8.0 14.0 0.00 0.00 0.00 88 1013.1
20220528135913 80 198 7.0 12.0 0.00 0.00 0.00 89 1013.0
20220528135416 80 202 5.0 10.0 0.00 0.00 0.00 91 1013.0
20220528134914 80 199 4.0 10.0 0.00 0.00 0.00 91 1013.0
20220528134413 79 207 3.0 9.0 0.00 0.00 0.00 92 1013.0
20220528133911 79 189 4.0 8.0 0.00 0.00 0.00 93 1013.0
20220528133411 79 197 4.0 8.0 0.00 0.00 0.00 94 1013.0
20220528132914 79 169 3.0 8.0 0.00 0.00 0.00 94 1013.0
20220528132413 78 174 3.0 7.0 0.00 0.00 0.00 94 1013.0
20220528131910 78 90 2.0 4.0 0.00 0.00 0.00 95 1013.0
20220528131411 78 145 2.0 4.0 0.00 0.00 0.00 96 1013.0
20220528130911 77 141 2.0 4.0 0.00 0.00 0.00 96 1013.0
20220528130408 77 141 2.0 4.0 0.00 0.00 0.00 96 1013.0
20220528125908 77 141 2.0 4.0 0.00 0.00 0.00 96 1012.9
20220528125409 76 141 1.0 3.0 0.00 0.00 0.00 96 1012.9
20220528124907 76 147 1.0 3.0 0.00 0.00 0.00 96 1012.9
20220528124405 76 147 2.0 3.0 0.00 0.00 0.00 96 1012.9
20220528123901 76 147 1.0 3.0 0.00 0.00 0.00 96 1012.9
20220528123402 76 147 1.0 3.0 0.00 0.00 0.00 96 1012.9
20220528122906 76 147 2.0 3.0 0.00 0.00 0.00 96 1012.9
20220528122401 76 148 1.0 3.0 0.00 0.00 0.00 96 1012.9
20220528121902 76 148 1.0 3.0 0.00 0.00 0.00 96 1012.9
20220528121403 76 148 2.0 3.0 0.00 0.00 0.00 96 1012.9
20220528120900 76 148 1.0 3.0 0.00 0.00 0.00 96 1012.9
20220528120403 76 148 1.0 3.0 0.00 0.00 0.00 96 1012.9
20220528115901 76 148 2.0 3.0 0.00 0.00 0.00 96 1012.7
20220528115349 75 148 1.0 3.0 0.00 0.00 0.00 96 1012.7
20220528114849 75 148 1.0 2.0 0.00 0.00 0.00 96 1012.7
20220528114350 75 148 1.0 2.0 0.00 0.00 0.00 96 1012.4
20220528113848 75 148 2.0 2.0 0.00 0.00 0.00 96 1012.4
20220528113349 75 148 2.0 3.0 0.00 0.00 0.00 96 1012.4
20220528112850 75 148 2.0 3.0 0.00 0.00 0.00 96 1012.4
20220528112351 75 148 2.0 3.0 0.00 0.00 0.00 95 1012.4
20220528111849 75 148 2.0 3.0 0.00 0.00 0.00 95 1012.4
20220528111342 75 148 2.0 3.0 0.00 0.00 0.00 95 1012.2
20220528110834 76 148 2.0 3.0 0.00 0.00 0.00 96 1012.2
20220528110331 76 148 2.0 5.0 0.00 0.00 0.00 96 1012.2
20220528105831 76 148 2.0 5.0 0.00 0.00 0.00 96 1011.9
20220528105332 76 148 2.0 5.0 0.00 0.00 0.00 96 1011.9
20220528104831 76 148 3.0 5.0 0.00 0.00 0.00 96 1011.9
20220528104327 76 160 3.0 6.0 0.00 0.00 0.00 96 1011.9
20220528103826 76 168 3.0 9.0 0.00 0.00 0.00 96 1011.9
20220528103329 76 177 3.0 9.0 0.00 0.00 0.00 96 1011.9
20220528102829 76 180 4.0 9.0 0.00 0.00 0.00 96 1011.9
20220528102322 76 205 4.0 9.0 0.00 0.00 0.00 96 1011.9
20220528101822 76 184 4.0 9.0 0.00 0.00 0.00 96 1011.9
20220528101320 76 187 4.0 9.0 0.00 0.00 0.00 96 1011.9
20220528100821 76 191 4.0 8.0 0.00 0.00 0.00 96 1011.9
20220528100308 76 170 4.0 8.0 0.00 0.00 0.00 96 1011.9
20220528095802 76 185 3.0 8.0 0.00 0.00 0.00 96 1011.9
20220528095259 76 193 4.0 8.0 0.00 0.00 0.00 96 1011.9
20220528094800 76 194 4.0 7.0 0.00 0.00 0.00 96 1011.9
20220528094301 76 198 3.0 8.0 0.00 0.00 0.00 96 1011.7
20220528093759 76 199 3.0 8.0 0.00 0.00 0.00 96 1011.7
20220528093258 76 210 3.0 7.0 0.00 0.00 0.00 96 1011.7
20220528092800 77 192 4.0 9.0 0.00 0.00 0.00 96 1011.6
20220528092257 77 193 4.0 9.0 0.00 0.00 0.00 96 1011.6
20220528091756 77 162 4.0 9.0 0.00 0.00 0.00 96 1011.6
20220528091258 76 188 3.0 9.0 0.00 0.00 0.00 96 1011.4
20220528090757 76 90 2.0 7.0 0.00 0.00 0.00 96 1011.4
20220528090254 76 201 2.0 7.0 0.00 0.00 0.00 96 1011.4
20220528085748 75 172 2.0 7.0 0.00 0.00 0.00 96 1011.4
20220528085239 75 175 2.0 5.0 0.00 0.00 0.00 96 1011.4
20220528084728 74 172 3.0 5.0 0.00 0.00 0.00 95 1011.4
20220528084222 74 168 3.0 6.0 0.00 0.00 0.00 95 1011.4
20220528083711 74 170 4.0 6.0 0.00 0.00 0.00 95 1011.4
20220528083210 74 168 4.0 6.0 0.00 0.00 0.00 95 1011.4
20220528082655 75 172 3.0 6.0 0.00 0.00 0.00 95 1011.4
20220528082147 75 173 4.0 6.0 0.00 0.00 0.00 95 1011.4
20220528081645 75 173 3.0 6.0 0.00 0.00 0.00 95 1011.4
20220528081141 75 174 2.0 5.0 0.00 0.00 0.00 95 1011.3
20220528080642 75 175 3.0 5.0 0.00 0.00 0.00 95 1011.3
20220528080141 75 175 2.0 5.0 0.00 0.00 0.00 95 1011.3
20220528075642 75 176 2.0 5.0 0.00 0.00 0.00 95 1011.3
20220528075141 75 180 2.0 5.0 0.00 0.00 0.00 95 1011.3
20220528074646 75 181 2.0 5.0 0.00 0.00 0.00 95 1011.3